Canby, MN

6:46 PM CDT on July 24, 2017 (GMT -0500)
Canby

Weather History for KCNB - February, 2014

Change the Weather History Date:

Saturday, February 15, 2014

  Actual Average (KMML) Record (KMML)
Temperature  
Mean Temperature 18 °F -  
Max Temperature 33 °F 26 °F 52 °F (1981)
Min Temperature 3 °F 6 °F -21 °F (1979)
Degree Days  
Heating Degree Days 47    
Moisture  
Dew Point 14 °F    
Average Humidity 78    
Maximum Humidity 87    
Minimum Humidity 67    
Precipitation  
Precipitation 0.00 in - - ()
Sea Level Pressure  
Sea Level Pressure 29.85 in    
Wind  
Wind Speed 12 mph (West)    
Max Wind Speed 23 mph    
Max Gust Speed 33 mph    
Visibility 10 miles    
Events Snow    
Averages and records for this station are not official NWS values.
T = Trace of Precipitation, MM = Missing Value Source: NWS Daily Summary

Daily Weather History Graph

Daily Weather History Graph

Search for Another Location

Airport or City:

Trip Planner

Search our weather history database for the weather conditions in past years. The results will help you decide how hot, cold, wet, or windy it might be!

Date:

Astronomy

Feb. 15, 2014 Rise Set
Actual Time 7:25 AM CST 5:53 PM CST
Civil Twilight 6:55 AM CST 6:23 PM CST
Nautical Twilight 6:21 AM CST 6:57 PM CST
Astronomical Twilight 5:47 AM CST 7:31 PM CST
Moon 6:59 PM CST (2/15) 7:21 AM CST (2/15)
Length of Visible Light 11h 28m
Length of Day
10h 28m
Waxing Gibbous, 99% of the Moon is Illuminated
Feb 15
Waxing Gibbous
Feb 22
Last Quarter
Mar 1
New
Mar 8
First Quarter
Mar 16
Full

Hourly Weather History & Observations

Time (CST) Temp. Windchill Dew Point Humidity Pressure Visibility Wind Dir Wind Speed Gust Speed Precip Events Conditions
12:14 AM 3.9 °F -5.3 °F 0.1 °F 84% 29.94 in 10.0 mi SSE 4.6 mph - N/A   Clear
12:34 AM 5.0 °F -5.6 °F 1.0 °F 84% 29.94 in 10.0 mi SSE 5.8 mph - N/A   Clear
12:55 AM 5.4 °F -3.6 °F 1.0 °F 82% 29.92 in 10.0 mi SSE 4.6 mph - N/A   Clear
1:15 AM 11.8 °F 1.3 °F 4.6 °F 73% 29.91 in 10.0 mi South 6.9 mph - N/A   Clear
1:34 AM 11.3 °F 0.7 °F 4.1 °F 73% 29.89 in 10.0 mi SSE 6.9 mph - N/A   Clear
1:54 AM 12.9 °F 1.6 °F 5.5 °F 72% 29.88 in 10.0 mi South 8.1 mph - N/A   Clear
2:15 AM 14.2 °F 3.1 °F 5.4 °F 68% 29.88 in 10.0 mi South 8.1 mph - N/A   Clear
2:34 AM 13.5 °F 3.3 °F 5.5 °F 71% 29.87 in 10.0 mi SSE 6.9 mph - N/A   Clear
2:54 AM 14.2 °F 3.1 °F 6.1 °F 70% 29.86 in 10.0 mi South 8.1 mph - N/A   Clear
3:14 AM 15.4 °F 4.6 °F 6.8 °F 69% 29.85 in 10.0 mi South 8.1 mph - N/A   Clear
3:34 AM 16.2 °F 3.9 °F 6.8 °F 67% 29.83 in 10.0 mi South 10.4 mph - N/A   Scattered Clouds
3:55 AM 16.2 °F 3.9 °F 7.5 °F 69% 29.80 in 10.0 mi SSE 10.4 mph - N/A   Overcast
4:14 AM 16.7 °F 3.2 °F 8.4 °F 70% 29.78 in 10.0 mi SSE 12.7 mph - N/A   Overcast
4:34 AM 17.2 °F 3.9 °F 8.4 °F 68% 29.77 in 10.0 mi South 12.7 mph - N/A   Overcast
4:55 AM 17.8 °F 5.9 °F 9.1 °F 69% 29.75 in 10.0 mi South 10.4 mph 16.1 mph N/A   Mostly Cloudy
5:15 AM 19.2 °F 6.4 °F 10.4 °F 69% 29.73 in 10.0 mi South 12.7 mph 17.3 mph N/A   Scattered Clouds
5:34 AM 19.4 °F 5.5 °F 11.1 °F 70% 29.71 in 10.0 mi SE 15.0 mph - N/A   Scattered Clouds
5:54 AM 20.8 °F 9.0 °F 12.7 °F 71% 29.71 in 10.0 mi SE 11.5 mph 18.4 mph N/A   Overcast
6:15 AM 23.0 °F 12.4 °F 14.0 °F 68% 29.69 in 10.0 mi SSW 10.4 mph 20.7 mph N/A   Overcast
6:34 AM 22.6 °F 8.3 °F 14.0 °F 69% 29.68 in 10.0 mi SSW 18.4 mph 28.8 mph N/A   Overcast
6:54 AM 22.1 °F 6.4 °F 14.0 °F 71% 29.67 in 10.0 mi SSW 21.9 mph 33.4 mph N/A   Overcast
7:15 AM 21.9 °F 6.5 °F 14.0 °F 72% 29.68 in 10.0 mi SSW 20.7 mph 32.2 mph N/A   Overcast
7:34 AM 21.9 °F 6.5 °F 14.0 °F 72% 29.69 in 10.0 mi SSW 20.7 mph 32.2 mph N/A   Overcast
7:55 AM 21.0 °F 5.0 °F 13.6 °F 73% 29.67 in 10.0 mi SSW 21.9 mph 32.2 mph N/A   Overcast
8:14 AM 21.2 °F 6.4 °F 14.4 °F 75% 29.65 in 7.0 mi SSW 18.4 mph 31.1 mph N/A Snow Light Snow
8:34 AM 20.8 °F 5.5 °F 14.5 °F 77% 29.66 in 10.0 mi SSW 19.6 mph 31.1 mph N/A   Overcast
8:55 AM 21.0 °F 6.6 °F 14.4 °F 75% 29.64 in 10.0 mi SSW 17.3 mph 25.3 mph N/A   Overcast
9:14 AM 22.1 °F 8.5 °F 15.6 °F 76% 29.65 in 10.0 mi SSW 16.1 mph 25.3 mph N/A   Overcast
9:35 AM 23.7 °F 13.3 °F 17.4 °F 77% 29.66 in 10.0 mi South 10.4 mph 17.3 mph N/A   Overcast
9:54 AM 24.8 °F 9.6 °F 18.3 °F 76% 29.65 in 10.0 mi SW 23.0 mph 27.6 mph N/A   Overcast
10:14 AM 25.7 °F 13.5 °F 19.4 °F 77% 29.65 in 10.0 mi WSW 15.0 mph 24.2 mph N/A   Overcast
10:35 AM 28.0 °F 24.2 °F 21.0 °F 75% 29.65 in 10.0 mi South 3.5 mph - N/A   Mostly Cloudy
10:54 AM 29.7 °F 21.3 °F 22.5 °F 75% 29.66 in 7.0 mi WSW 9.2 mph - N/A Snow Light Snow
11:14 AM 30.9 °F 26.2 °F 23.4 °F 74% 29.66 in 10.0 mi WSW 4.6 mph 16.1 mph N/A   Mostly Cloudy
11:34 AM 31.6 °F 27.0 °F 24.3 °F 74% 29.66 in 10.0 mi West 4.6 mph - N/A   Mostly Cloudy
11:54 AM 32.4 °F 23.5 °F 25.7 °F 76% 29.66 in 10.0 mi West 11.5 mph - N/A   Overcast
12:15 PM 33.8 °F 24.8 °F 26.2 °F 74% 29.66 in 10.0 mi WNW 12.7 mph 18.4 mph N/A   Overcast
12:34 PM 33.8 °F 27.0 °F 26.4 °F 74% 29.66 in 10.0 mi NW 8.1 mph - N/A   Overcast
12:54 PM 32.9 °F 24.7 °F 26.1 °F 76% 29.68 in 10.0 mi NNW 10.4 mph - N/A   Overcast
1:15 PM 32.0 °F 22.5 °F 25.3 °F 76% 29.70 in 10.0 mi NNW 12.7 mph 19.6 mph N/A   Overcast
1:34 PM 31.6 °F 22.1 °F 25.3 °F 78% 29.71 in 10.0 mi North 12.7 mph - N/A   Overcast
1:54 PM 31.1 °F 20.5 °F 24.6 °F 77% 29.73 in 10.0 mi NNW 15.0 mph 19.6 mph N/A   Overcast
2:15 PM 30.7 °F 18.8 °F 24.4 °F 77% 29.75 in 10.0 mi NNW 18.4 mph 23.0 mph N/A   Overcast
2:34 PM 29.8 °F 17.0 °F 23.9 °F 79% 29.77 in 10.0 mi NNW 20.7 mph 27.6 mph N/A   Overcast
2:54 PM 28.9 °F 16.1 °F 23.0 °F 78% 29.78 in 10.0 mi NNW 19.6 mph 25.3 mph N/A   Overcast
3:14 PM 28.4 °F 15.4 °F 23.2 °F 81% 29.80 in 10.0 mi NNW 19.6 mph 24.2 mph N/A   Overcast
3:34 PM 27.9 °F 15.5 °F 23.5 °F 84% 29.83 in 10.0 mi NNW 17.3 mph 20.7 mph N/A   Overcast
3:55 PM 27.0 °F 13.2 °F 22.6 °F 84% 29.85 in 10.0 mi NNW 20.7 mph 25.3 mph N/A   Overcast
4:14 PM 25.5 °F 10.9 °F 21.4 °F 84% 29.87 in 10.0 mi NNW 21.9 mph 27.6 mph N/A   Overcast
4:34 PM 23.7 °F 8.9 °F 19.4 °F 84% 29.90 in 10.0 mi NNW 20.7 mph 27.6 mph N/A   Overcast
4:55 PM 23.2 °F 9.0 °F 19.0 °F 84% 29.92 in 10.0 mi NNW 18.4 mph 25.3 mph N/A   Overcast
5:14 PM 22.1 °F 8.0 °F 18.0 °F 84% 29.93 in 10.0 mi NW 17.3 mph 25.3 mph N/A   Overcast
5:34 PM 20.8 °F 6.4 °F 16.5 °F 83% 29.96 in 10.0 mi NW 17.3 mph 25.3 mph N/A   Overcast
5:55 PM 20.1 °F 3.8 °F 15.6 °F 83% 29.97 in 10.0 mi NNW 21.9 mph - N/A   Overcast
6:14 PM 19.2 °F 4.3 °F 14.9 °F 83% 29.99 in 10.0 mi NNW 17.3 mph 23.0 mph N/A   Overcast
6:34 PM 18.5 °F 3.8 °F 14.9 °F 86% 30.01 in 7.0 mi NNW 16.1 mph - N/A   Overcast
6:54 PM 17.4 °F 0.6 °F 13.6 °F 85% 30.04 in 7.0 mi NW 20.7 mph 24.2 mph N/A Snow Light Snow
7:15 PM 16.7 °F 2.6 °F 12.7 °F 84% 30.05 in 7.0 mi NNW 13.8 mph 21.9 mph N/A Snow Light Snow
7:34 PM 16.5 °F 3.0 °F 12.9 °F 86% 30.05 in 5.0 mi NNW 12.7 mph 18.4 mph N/A Snow Light Snow
7:54 PM 15.8 °F 0.9 °F 12.6 °F 87% 30.06 in 5.0 mi NNW 15.0 mph 20.7 mph N/A Snow Light Snow
8:15 PM 15.6 °F 0.6 °F 12.4 °F 87% 30.07 in 4.0 mi NNW 15.0 mph 20.7 mph N/A Snow Light Snow
8:34 PM 14.9 °F -0.8 °F 11.1 °F 85% 30.09 in 5.0 mi NW 16.1 mph 21.9 mph N/A Snow Light Snow
8:54 PM 13.8 °F -3.7 °F 9.1 °F 82% 30.11 in 7.0 mi NNW 19.6 mph 27.6 mph N/A Snow Light Snow
9:15 PM 12.4 °F -4.1 °F 7.3 °F 80% 30.12 in 10.0 mi NNW 16.1 mph 27.6 mph N/A   Overcast
9:35 PM 10.4 °F -6.6 °F 5.9 °F 82% 30.13 in 10.0 mi NNW 16.1 mph 21.9 mph N/A   Scattered Clouds
9:54 PM 9.5 °F -7.2 °F 5.0 °F 82% 30.13 in 10.0 mi NNW 15.0 mph - N/A   Clear
10:14 PM 9.0 °F -6.6 °F 4.8 °F 83% 30.10 in 10.0 mi North 12.7 mph 20.7 mph N/A   Scattered Clouds
10:35 PM 8.4 °F -7.9 °F 4.5 °F 84% 30.12 in 10.0 mi NNW 13.8 mph 19.6 mph N/A   Scattered Clouds
10:54 PM 7.7 °F -9.5 °F 4.1 °F 85% 30.11 in 10.0 mi NNW 15.0 mph 20.7 mph N/A   Clear
11:14 PM 6.8 °F -7.8 °F 3.0 °F 84% 30.09 in 10.0 mi NNW 10.4 mph 17.3 mph N/A   Clear
11:35 PM 6.3 °F -6.5 °F 2.3 °F 84% 30.11 in 10.0 mi NW 8.1 mph - N/A   Clear
11:54 PM 5.7 °F -8.2 °F 1.9 °F 84% 30.12 in 10.0 mi NW 9.2 mph - N/A   Clear